Address 0xb878cafd2b829179a78de6d85c18e10a3acc7c64

 
 
Txn Hash Method
Block
From
To
Value [Txn Fee]
0xc1545ae13219954ebc34091b878a6f8da929f8f19b772e1fe0ac8f772b538540Safe Transfer Fr...240842112022-01-23 23:57:4057 secs ago0xb878cafd2b829179a78de6d85c18e10a3acc7c64OUT 0x7b6648b0b53d76b6c5057951def6dd9c6af506de0 MATIC0.00513156653
0x1cc2d2c8060f709e48f4d1de23faf18bcf874f63cffb0d42c88e041722406d09Safe Transfer Fr...240837542022-01-23 23:39:5018 mins ago0xb878cafd2b829179a78de6d85c18e10a3acc7c64OUT 0x7b6648b0b53d76b6c5057951def6dd9c6af506de0 MATIC0.026674872249
0x3920025951f90043da5075cbce41633e020f7ef3a714d9ae976b256f812e93faSafe Transfer Fr...240837032022-01-23 23:38:0420 mins ago0xb878cafd2b829179a78de6d85c18e10a3acc7c64OUT 0x7b6648b0b53d76b6c5057951def6dd9c6af506de0 MATIC0.00588484872
0x08fa6ae95fe076bb1c1e33c754f5cf364edc5752561d723748991ff4db40e9e2Safe Transfer Fr...240834902022-01-23 23:30:4627 mins ago0xb878cafd2b829179a78de6d85c18e10a3acc7c64OUT 0x8875e59b49be89ed88d7dd5e0d139424c5138bb50 MATIC0.0094034100
0x0b5236b5ba3cc7b5fadf36ae72c8975a5f73b5efcb9502fe4191f3da9bd5b38aMint240831502022-01-23 23:19:0639 mins ago0xb878cafd2b829179a78de6d85c18e10a3acc7c64OUT 0x81f5a1b85e035d97bc841488a4ec869c6f536eb90 MATIC0.037904841213
0x9873b9540a0c612a23451e8fc9731593ec55e55d6ae7b1843c2f66bb90c9a3b8Safe Transfer Fr...240829142022-01-23 23:10:5847 mins ago0xb878cafd2b829179a78de6d85c18e10a3acc7c64OUT 0x96f623ea7072c062cf0b40253bdf3983a0af14f50 MATIC0.011297562129
0xfa08838863e5353d4a91975d6717528b824dafd4b3507777ce3fcec86ea0f23bSafe Transfer Fr...240820252022-01-23 22:40:241 hr 18 mins ago0xb878cafd2b829179a78de6d85c18e10a3acc7c64OUT 0x96f623ea7072c062cf0b40253bdf3983a0af14f50 MATIC0.0054932955
0x8ef85867a1bf0f6cc0c99df8aee55d9059c672e10def61cece7671f1bb9e29b6Mint240815522022-01-23 22:24:101 hr 34 mins ago0xb878cafd2b829179a78de6d85c18e10a3acc7c64OUT 0x81f5a1b85e035d97bc841488a4ec869c6f536eb90 MATIC0.00978763555
0x426085794f8c3a2ee32b14edd9fa301b9007a3a1f56cf328a104e346721a5841Safe Transfer Fr...240810162022-01-23 22:03:141 hr 55 mins ago0xb878cafd2b829179a78de6d85c18e10a3acc7c64OUT 0xffb13387bb5724d90645fb63f43703f744c4de830 MATIC0.00367827642
0x1a523575f392b2783a39a92c47064890e1ffdaddfa4305b8d608b88f0a5b5880Safe Transfer Fr...240809872022-01-23 22:02:161 hr 56 mins ago0xb878cafd2b829179a78de6d85c18e10a3acc7c64OUT 0xffb13387bb5724d90645fb63f43703f744c4de830 MATIC0.00411560247
0x319793f5e8b0a284dcfe041172abd3bc63ba393a235cde95dac268711f790a17Safe Transfer Fr...240809762022-01-23 22:01:541 hr 56 mins ago0xb878cafd2b829179a78de6d85c18e10a3acc7c64OUT 0xffb13387bb5724d90645fb63f43703f744c4de830 MATIC0.00288967833
0xe280bd18f070149aea810fdd769cd27dd2412dc611dbcacca987307eba0b2db7Safe Transfer Fr...240809712022-01-23 22:01:441 hr 56 mins ago0xb878cafd2b829179a78de6d85c18e10a3acc7c64OUT 0x96f623ea7072c062cf0b40253bdf3983a0af14f50 MATIC0.0039410145
0x71393570067bb403d68dd3bf15a0d2b41793d4d48037fb1d06b0437f6a9d4a22Safe Transfer Fr...240809672022-01-23 22:01:361 hr 57 mins ago0xb878cafd2b829179a78de6d85c18e10a3acc7c64OUT 0xffb13387bb5724d90645fb63f43703f744c4de830 MATIC0.0039404745
0xfcdc3fe6ebbc575c7810cd8071218dffc06e8891226bfc5d66fc5b3137bf15ffSafe Transfer Fr...240809562022-01-23 22:01:101 hr 57 mins ago0xb878cafd2b829179a78de6d85c18e10a3acc7c64OUT 0xffb13387bb5724d90645fb63f43703f744c4de830 MATIC0.00411560247
0xa048d2ccb413ef1970d3dd2498be25d319fa74016621530e0f1b49e501edf9fcSafe Transfer Fr...240809422022-01-23 22:00:421 hr 57 mins ago0xb878cafd2b829179a78de6d85c18e10a3acc7c64OUT 0xffb13387bb5724d90645fb63f43703f744c4de830 MATIC0.00411616647
0x71ec9762918a7a7a2d7ae0400ef75946d81f66947ff136ebf7229aecfa967355Safe Transfer Fr...240807192022-01-23 21:53:042 hrs 5 mins ago0xb878cafd2b829179a78de6d85c18e10a3acc7c64OUT 0x96f623ea7072c062cf0b40253bdf3983a0af14f50 MATIC0.00385343244
0x1d1d3ac671a2dd96010f1f1e2ee058678d34ee71f8a5c321c6da75b17ef3a10dSafe Transfer Fr...240806962022-01-23 21:52:142 hrs 6 mins ago0xb878cafd2b829179a78de6d85c18e10a3acc7c64OUT 0x96f623ea7072c062cf0b40253bdf3983a0af14f50 MATIC0.00341554239
0x9d443804617158679233b9463a7365dcb8380a627165249f6e9bdf907924cae1Safe Transfer Fr...240804122022-01-23 21:42:302 hrs 16 mins ago0xb878cafd2b829179a78de6d85c18e10a3acc7c64OUT 0x96f623ea7072c062cf0b40253bdf3983a0af14f50 MATIC0.00507952458
0x033ca91f21241e6c65f4306a188fdd74401907816048e6e46bf3d037bd622cf1Safe Transfer Fr...240803262022-01-23 21:39:342 hrs 19 mins ago0xb878cafd2b829179a78de6d85c18e10a3acc7c64OUT 0xffb13387bb5724d90645fb63f43703f744c4de830 MATIC0.00367777242
0x7e43b2b3a0ec3c7b56c796a30fb1a5be552d8e6c2534c699f0f084fd88b150bdSafe Transfer Fr...240803082022-01-23 21:38:542 hrs 19 mins ago0xb878cafd2b829179a78de6d85c18e10a3acc7c64OUT 0xffb13387bb5724d90645fb63f43703f744c4de830 MATIC0.00297724434
0x9fc7b9018f85add200484d4da62438a698af4125315ec27e56a458f392978eccSafe Transfer Fr...240802992022-01-23 21:38:362 hrs 20 mins ago0xb878cafd2b829179a78de6d85c18e10a3acc7c64OUT 0xffb13387bb5724d90645fb63f43703f744c4de830 MATIC0.00341554239
0x9c46bdd867c93fccb94bb6fd4f5d76c1537e96416d774bf273595d3682ff53a8Safe Transfer Fr...240802962022-01-23 21:38:302 hrs 20 mins ago0xb878cafd2b829179a78de6d85c18e10a3acc7c64OUT 0x96f623ea7072c062cf0b40253bdf3983a0af14f50 MATIC0.00389524239
0xfb89dbcc2e5bdb0d47631a6dc4adb8204325db2daf3e8dd6bc9416c24e56ff9bSafe Transfer Fr...240802872022-01-23 21:38:122 hrs 20 mins ago0xb878cafd2b829179a78de6d85c18e10a3acc7c64OUT 0xffb13387bb5724d90645fb63f43703f744c4de830 MATIC0.00332750838
0x598e32357f565135b59ff23281e5b0ad96d0b30300f246373d0ac590be623497Safe Transfer Fr...240802572022-01-23 21:37:122 hrs 21 mins ago0xb878cafd2b829179a78de6d85c18e10a3acc7c64OUT 0xffb13387bb5724d90645fb63f43703f744c4de830 MATIC0.00341507439
0x29f5e820c09b50999a7d1858ce4385b86493ac3fd162856f5eff32385d148433Safe Transfer Fr...240802482022-01-23 21:36:502 hrs 21 mins ago0xb878cafd2b829179a78de6d85c18e10a3acc7c64OUT 0xffb13387bb5724d90645fb63f43703f744c4de830 MATIC0.0035026440
[ Download CSV Export 
Parent Txn Hash Block From To Value
Loading

Contract Name:
0 MATIC

Compiler Version
0

Optimization Enabled:
0 MATIC

Other Settings:
-NA-
Block Transaction Gas Used Reward
Age Block Fee Address BC Fee Address Voting Power Jailed Incoming
Block Uncle Number Difficulty Gas Used Reward
Loading
Loading
Make sure to use the "Vote Down" button for any spammy posts, and the "Vote Up" for interesting conversations.